TUI3CT LPMA-EDDF

Flight info

Callsign TUI3CT
Flight time N/A
Altitude 36000
Route DEGUN DCT ROLAR DCT VERAM DCT ASMAR/N0451F380 DCT DEMOS DCT LOTEE DCT AZFIC DCT ERIGA DCT MOKOR UN741 NTS DCT GONEK DCT TABOV DCT TSU DCT OQQAL DCT RANUX/N0442F390 DCT VALEK DCT LUTAX DCT DIK T856 NIVNU/N0372F230 T847 IMCOM IMCOM1A
Aircraft B738/M-SDE2E3FGHIRWXY/LB1

Departure

Time N/A
Airport Cristiano Ronaldo International Airport (LPMA)

Arrival

Time 2026-05-03 21:56
Airport Frankfurt Main Airport (EDDF)
Time Latitude Longitude Altitude Speed Heading
2026-05-03 20:15 44.37551 -6.22474 38001 ft 481 kts 44°
2026-05-03 20:15 44.42351 -6.15949 38002 ft 481 kts 44°
2026-05-03 20:16 44.47161 -6.09393 38015 ft 482 kts 44°
2026-05-03 20:16 44.51960 -6.02839 38000 ft 482 kts 44°
2026-05-03 20:17 44.56757 -5.96269 37999 ft 482 kts 44°
2026-05-03 20:17 44.61522 -5.89727 38000 ft 482 kts 44°
2026-05-03 20:18 44.66319 -5.83128 37996 ft 483 kts 44°
2026-05-03 20:18 44.71133 -5.76536 37994 ft 483 kts 44°
2026-05-03 20:19 44.75955 -5.69944 37980 ft 483 kts 44°
2026-05-03 20:19 44.80765 -5.63346 37994 ft 483 kts 44°
2026-05-03 20:20 44.85574 -5.56729 37995 ft 483 kts 44°
2026-05-03 20:20 44.90384 -5.50090 38000 ft 484 kts 44°
2026-05-03 20:21 44.95159 -5.43484 37992 ft 484 kts 44°
2026-05-03 20:21 44.99955 -5.36832 37996 ft 483 kts 44°
2026-05-03 20:22 45.04751 -5.30164 37989 ft 483 kts 44°
2026-05-03 20:22 45.09536 -5.23494 38000 ft 483 kts 45°
2026-05-03 20:23 45.14320 -5.16809 37990 ft 483 kts 45°
2026-05-03 20:23 45.19107 -5.10103 37989 ft 483 kts 45°
2026-05-03 20:24 45.23890 -5.03388 37987 ft 483 kts 45°
2026-05-03 20:24 45.28638 -4.96703 37993 ft 483 kts 45°
2026-05-03 20:25 45.33411 -4.89966 37991 ft 484 kts 45°
2026-05-03 20:25 45.38191 -4.83204 37987 ft 485 kts 45°
2026-05-03 20:26 45.42976 -4.76417 37985 ft 486 kts 45°
2026-05-03 20:26 45.47757 -4.69618 37986 ft 486 kts 45°
2026-05-03 20:27 45.52549 -4.62786 37976 ft 487 kts 45°
2026-05-03 20:27 45.57331 -4.55950 37986 ft 487 kts 46°
2026-05-03 20:28 45.62123 -4.49084 37983 ft 487 kts 46°
2026-05-03 20:28 45.66878 -4.42252 37983 ft 488 kts 46°
2026-05-03 20:29 45.71658 -4.35367 37989 ft 488 kts 46°
2026-05-03 20:29 45.76438 -4.28464 37982 ft 488 kts 46°
2026-05-03 20:30 45.81210 -4.21555 37982 ft 487 kts 46°
2026-05-03 20:30 45.85974 -4.14640 37983 ft 487 kts 46°
2026-05-03 20:31 45.90725 -4.07725 37998 ft 486 kts 46°
2026-05-03 20:31 45.95471 -4.00801 37983 ft 486 kts 46°
2026-05-03 20:32 46.00207 -3.93872 37961 ft 486 kts 46°
2026-05-03 20:32 46.04940 -3.86930 37976 ft 485 kts 46°
2026-05-03 20:33 46.09630 -3.80034 37981 ft 485 kts 46°
2026-05-03 20:33 46.14358 -3.73064 37984 ft 486 kts 46°
2026-05-03 20:34 46.19081 -3.66081 37977 ft 486 kts 46°
2026-05-03 20:34 46.23797 -3.59091 37965 ft 486 kts 46°
2026-05-03 20:35 46.28520 -3.52073 37974 ft 486 kts 46°
2026-05-03 20:35 46.33237 -3.45045 37989 ft 487 kts 46°
2026-05-03 20:36 46.37962 -3.37986 37975 ft 488 kts 46°
2026-05-03 20:36 46.42684 -3.30913 37976 ft 488 kts 46°
2026-05-03 20:37 46.47374 -3.23869 37972 ft 489 kts 46°
2026-05-03 20:37 46.52097 -3.16756 37967 ft 489 kts 46°
2026-05-03 20:38 46.56751 -3.09561 37970 ft 489 kts 52°
2026-05-03 20:38 46.60387 -3.01268 37979 ft 486 kts 62°
2026-05-03 20:39 46.63716 -2.92690 37965 ft 487 kts 62°
2026-05-03 20:39 46.67073 -2.84137 37968 ft 487 kts 62°
2026-05-03 20:40 46.70468 -2.75599 37962 ft 487 kts 62°
2026-05-03 20:40 46.73290 -2.68511 37966 ft 486 kts 62°
2026-05-03 20:41 46.77230 -2.58573 37968 ft 486 kts 62°
2026-05-03 20:41 46.80609 -2.50016 37964 ft 486 kts 62°
2026-05-03 20:42 46.83978 -2.41456 37946 ft 486 kts 62°
2026-05-03 20:42 46.86805 -2.34282 37961 ft 486 kts 61°
2026-05-03 20:43 46.90359 -2.25854 37960 ft 487 kts 60°
2026-05-03 20:43 46.93934 -2.17508 37962 ft 487 kts 60°
2026-05-03 20:44 46.97493 -2.09066 37960 ft 487 kts 60°
2026-05-03 20:44 47.01035 -2.00599 37936 ft 487 kts 61°
2026-05-03 20:45 47.04403 -1.91991 37948 ft 486 kts 63°
2026-05-03 20:45 47.07691 -1.83310 37956 ft 487 kts 63°
2026-05-03 20:46 47.10983 -1.74686 37972 ft 487 kts 63°
2026-05-03 20:46 47.14311 -1.65994 37970 ft 488 kts 63°
2026-05-03 20:47 47.17740 -1.57370 37982 ft 489 kts 59°
2026-05-03 20:47 47.21494 -1.49020 37959 ft 490 kts 57°
2026-05-03 20:48 47.25310 -1.40699 37958 ft 490 kts 58°
2026-05-03 20:48 47.29088 -1.32333 37970 ft 490 kts 58°
2026-05-03 20:49 47.32832 -1.23934 37925 ft 491 kts 58°
2026-05-03 20:49 47.36565 -1.15513 37951 ft 490 kts 58°
2026-05-03 20:50 47.40266 -1.07141 37956 ft 490 kts 58°
2026-05-03 20:50 47.43984 -0.98709 37938 ft 490 kts 58°
2026-05-03 20:51 47.47693 -0.90273 37942 ft 489 kts 58°
2026-05-03 20:51 47.51394 -0.81832 37922 ft 489 kts 58°
2026-05-03 20:52 47.55009 -0.73341 37945 ft 487 kts 63°
2026-05-03 20:52 47.58096 -0.64435 37957 ft 485 kts 66°
2026-05-03 20:53 47.61028 -0.55424 37970 ft 485 kts 66°
2026-05-03 20:53 47.64006 -0.46440 37964 ft 485 kts 65°
2026-05-03 20:54 47.67018 -0.37493 37966 ft 485 kts 65°
2026-05-03 20:54 47.71529 -0.24114 37962 ft 485 kts 65°
2026-05-03 20:55 47.74535 -0.15147 37956 ft 485 kts 66°
2026-05-03 20:55 47.77537 -0.06156 37951 ft 485 kts 66°
2026-05-03 20:56 47.80526 0.02828 37940 ft 485 kts 66°
2026-05-03 20:56 47.83512 0.11836 37961 ft 485 kts 66°
2026-05-03 20:57 47.86490 0.20850 37967 ft 485 kts 66°
2026-05-03 20:57 47.89462 0.29876 37968 ft 485 kts 66°
2026-05-03 20:58 47.92426 0.38911 37965 ft 486 kts 66°
2026-05-03 20:58 47.95367 0.47909 37955 ft 485 kts 66°
2026-05-03 20:59 47.98317 0.56967 37953 ft 485 kts 66°
2026-05-03 20:59 48.01269 0.66060 37958 ft 486 kts 66°
2026-05-03 21:00 48.03714 0.73608 37940 ft 486 kts 66°
2026-05-03 21:00 48.07155 0.84255 37950 ft 486 kts 66°
2026-05-03 21:01 48.10088 0.93367 37949 ft 486 kts 66°
2026-05-03 21:01 48.13014 1.02491 37936 ft 485 kts 66°
2026-05-03 21:02 48.15924 1.11601 37945 ft 485 kts 66°
2026-05-03 21:02 48.18805 1.20650 37945 ft 484 kts 66°
2026-05-03 21:03 48.21695 1.29761 37924 ft 483 kts 66°
2026-05-03 21:03 48.24570 1.38859 37938 ft 482 kts 66°
2026-05-03 21:04 48.27428 1.47933 37943 ft 481 kts 66°
2026-05-03 21:04 48.30274 1.57003 37944 ft 479 kts 67°
2026-05-03 21:05 48.33105 1.66060 37947 ft 478 kts 67°
2026-05-03 21:05 48.35901 1.75038 37927 ft 477 kts 67°
2026-05-03 21:06 48.38702 1.84060 37946 ft 476 kts 67°
2026-05-03 21:06 48.41499 1.93103 37951 ft 477 kts 67°
2026-05-03 21:07 48.44293 2.02171 37958 ft 478 kts 67°
2026-05-03 21:07 48.47082 2.11257 37946 ft 479 kts 67°
2026-05-03 21:08 48.49871 2.20373 37938 ft 479 kts 67°
2026-05-03 21:08 48.52656 2.29510 37963 ft 480 kts 67°
2026-05-03 21:09 48.55438 2.38671 37962 ft 480 kts 67°
2026-05-03 21:09 48.58214 2.47850 37968 ft 481 kts 67°
2026-05-03 21:10 48.60988 2.57053 37967 ft 481 kts 67°
2026-05-03 21:10 48.63758 2.66280 37966 ft 481 kts 67°
2026-05-03 21:11 48.66498 2.75439 37969 ft 481 kts 67°
2026-05-03 21:11 48.69253 2.84681 37955 ft 481 kts 68°
2026-05-03 21:12 48.71995 2.93913 37951 ft 480 kts 68°
2026-05-03 21:12 48.74727 3.03150 37953 ft 480 kts 68°
2026-05-03 21:13 48.77448 3.12385 37951 ft 479 kts 68°
2026-05-03 21:13 48.80142 3.21564 37953 ft 479 kts 68°
2026-05-03 21:14 48.82842 3.30798 37959 ft 478 kts 68°
2026-05-03 21:14 48.85534 3.40037 37961 ft 478 kts 68°
2026-05-03 21:15 48.88215 3.49277 37963 ft 478 kts 68°
2026-05-03 21:15 48.90890 3.58529 37956 ft 477 kts 68°
2026-05-03 21:16 48.93559 3.67779 37964 ft 477 kts 68°
2026-05-03 21:16 48.96231 3.77029 37969 ft 477 kts 68°
2026-05-03 21:17 48.98450 3.84731 37964 ft 478 kts 68°
2026-05-03 21:17 49.01543 3.95522 37979 ft 478 kts 68°
2026-05-03 21:18 49.04197 4.04823 37963 ft 478 kts 68°
2026-05-03 21:18 49.06846 4.14141 37968 ft 479 kts 69°
2026-05-03 21:19 49.09484 4.23461 37967 ft 479 kts 69°
2026-05-03 21:19 49.12118 4.32798 37967 ft 479 kts 69°
2026-05-03 21:20 49.14743 4.42145 37942 ft 479 kts 69°
2026-05-03 21:20 49.17358 4.51490 37973 ft 478 kts 69°
2026-05-03 21:21 49.19963 4.60840 37976 ft 478 kts 69°
2026-05-03 21:21 49.22561 4.70198 37969 ft 478 kts 69°
2026-05-03 21:22 49.25154 4.79574 37967 ft 478 kts 69°
2026-05-03 21:22 49.27717 4.88881 37942 ft 477 kts 69°
2026-05-03 21:23 49.30288 4.98253 37971 ft 476 kts 69°
2026-05-03 21:23 49.32846 5.07617 37975 ft 475 kts 69°
2026-05-03 21:24 49.35390 5.16966 37971 ft 475 kts 69°
2026-05-03 21:24 49.37911 5.26267 37972 ft 475 kts 69°
2026-05-03 21:25 49.40440 5.35636 37976 ft 474 kts 69°
2026-05-03 21:25 49.42959 5.45003 37973 ft 474 kts 69°
2026-05-03 21:26 49.45467 5.54369 37975 ft 474 kts 69°
2026-05-03 21:26 49.47969 5.63752 37984 ft 474 kts 69°
2026-05-03 21:27 49.50399 5.73171 37984 ft 473 kts 72°
2026-05-03 21:27 49.51515 5.77954 37686 ft 479 kts 72°
2026-05-03 21:27 49.52241 5.81158 37391 ft 479 kts 73°
2026-05-03 21:28 49.53691 5.87611 36646 ft 475 kts 72°
2026-05-03 21:28 49.54773 5.92404 36083 ft 473 kts 72°
2026-05-03 21:28 49.55857 5.97173 35619 ft 470 kts 72°
2026-05-03 21:28 49.56572 6.00309 35343 ft 467 kts 72°
2026-05-03 21:29 49.57994 6.06519 34779 ft 460 kts 72°
2026-05-03 21:29 49.59059 6.11169 34386 ft 461 kts 72°
2026-05-03 21:29 49.60130 6.15855 34000 ft 466 kts 72°
2026-05-03 21:29 49.61199 6.20539 33536 ft 462 kts 72°
2026-05-03 21:30 49.62261 6.25198 33004 ft 459 kts 72°
2026-05-03 21:30 49.63317 6.29844 32473 ft 457 kts 72°
2026-05-03 21:30 49.64009 6.32897 32163 ft 454 kts 72°
2026-05-03 21:30 49.65046 6.37476 31761 ft 450 kts 72°
2026-05-03 21:31 49.66075 6.42031 31199 ft 449 kts 72°
2026-05-03 21:31 49.67100 6.46581 30679 ft 448 kts 72°
2026-05-03 21:31 49.68119 6.51120 30225 ft 446 kts 72°
2026-05-03 21:31 49.69129 6.55620 29760 ft 442 kts 72°
2026-05-03 21:32 49.70130 6.60091 29272 ft 438 kts 72°
2026-05-03 21:32 49.71120 6.64518 28778 ft 434 kts 72°
2026-05-03 21:32 49.72099 6.68913 28276 ft 431 kts 72°
2026-05-03 21:32 49.73071 6.73281 27781 ft 428 kts 73°
2026-05-03 21:33 49.74023 6.77568 27316 ft 425 kts 73°
2026-05-03 21:33 49.74990 6.81934 26804 ft 422 kts 73°
2026-05-03 21:33 49.75926 6.86168 26336 ft 420 kts 73°
2026-05-03 21:33 49.76867 6.90433 25884 ft 418 kts 73°
2026-05-03 21:34 49.77801 6.94675 25448 ft 415 kts 73°
2026-05-03 21:34 49.78728 6.98896 25013 ft 413 kts 74°
2026-05-03 21:34 49.79648 7.03091 24601 ft 411 kts 74°
2026-05-03 21:34 49.80562 7.07271 24214 ft 408 kts 74°
2026-05-03 21:35 49.81470 7.11425 23811 ft 406 kts 74°
2026-05-03 21:35 49.82370 7.15556 23404 ft 404 kts 75°
2026-05-03 21:35 49.83265 7.19671 22968 ft 401 kts 74°
2026-05-03 21:35 49.84150 7.23749 22558 ft 398 kts 74°
2026-05-03 21:36 49.85026 7.27793 22111 ft 395 kts 74°
2026-05-03 21:36 49.85898 7.31827 21623 ft 395 kts 74°
2026-05-03 21:36 49.86765 7.35848 21215 ft 392 kts 74°
2026-05-03 21:36 49.87623 7.39832 20875 ft 388 kts 74°
2026-05-03 21:37 49.88472 7.43781 20508 ft 384 kts 74°
2026-05-03 21:37 49.89314 7.47704 20109 ft 382 kts 73°
2026-05-03 21:37 49.90147 7.51597 19720 ft 379 kts 73°
2026-05-03 21:37 49.90972 7.55457 19346 ft 376 kts 73°
2026-05-03 21:38 49.91790 7.59291 18976 ft 373 kts 73°
2026-05-03 21:38 49.92600 7.63096 18605 ft 370 kts 73°
2026-05-03 21:38 49.93403 7.66874 18235 ft 367 kts 73°
2026-05-03 21:38 49.94198 7.70622 17813 ft 365 kts 73°
2026-05-03 21:39 49.94987 7.74352 17374 ft 363 kts 73°
2026-05-03 21:39 49.95771 7.78060 16953 ft 360 kts 73°
2026-05-03 21:39 49.96549 7.81747 16564 ft 358 kts 73°
2026-05-03 21:39 49.97320 7.85409 16175 ft 355 kts 73°
2026-05-03 21:40 49.98084 7.89041 15794 ft 353 kts 73°
2026-05-03 21:40 49.98841 7.92649 15412 ft 350 kts 73°
2026-05-03 21:40 49.99591 7.96195 15041 ft 348 kts 72°
2026-05-03 21:40 50.00418 7.99727 14666 ft 346 kts 70°
2026-05-03 21:41 50.01278 8.03210 14305 ft 344 kts 70°
2026-05-03 21:41 50.02140 8.06664 13948 ft 342 kts 70°
2026-05-03 21:41 50.02995 8.10099 13565 ft 340 kts 70°
2026-05-03 21:41 50.03841 8.13523 13162 ft 338 kts 70°
2026-05-03 21:42 50.04676 8.16923 12760 ft 336 kts 70°
2026-05-03 21:42 50.05503 8.20312 12366 ft 334 kts 71°
2026-05-03 21:42 50.06323 8.23685 11981 ft 332 kts 71°
2026-05-03 21:42 50.07139 8.27049 11580 ft 332 kts 71°
2026-05-03 21:43 50.07948 8.30393 11336 ft 328 kts 71°
2026-05-03 21:43 50.08751 8.33719 11106 ft 328 kts 71°
2026-05-03 21:43 50.09547 8.37024 11021 ft 324 kts 71°
2026-05-03 21:43 50.10339 8.40315 11005 ft 323 kts 71°
2026-05-03 21:44 50.11119 8.43562 10893 ft 318 kts 71°
2026-05-03 21:44 50.11889 8.46773 10562 ft 316 kts 72°
2026-05-03 21:44 50.12655 8.49976 10184 ft 316 kts 72°
2026-05-03 21:44 50.13424 8.53193 9835 ft 317 kts 72°
2026-05-03 21:45 50.14192 8.56411 9507 ft 316 kts 72°
2026-05-03 21:45 50.14944 8.59569 9210 ft 314 kts 72°
2026-05-03 21:45 50.15700 8.62746 8906 ft 312 kts 72°
2026-05-03 21:45 50.16453 8.65915 8565 ft 311 kts 72°
2026-05-03 21:46 50.17202 8.69070 8288 ft 309 kts 72°
2026-05-03 21:46 50.17946 8.72209 7975 ft 307 kts 72°
2026-05-03 21:46 50.18686 8.75339 7622 ft 307 kts 72°
2026-05-03 21:46 50.19424 8.78462 7314 ft 305 kts 72°
2026-05-03 21:47 50.20155 8.81558 7098 ft 300 kts 72°
2026-05-03 21:47 50.20862 8.84554 7019 ft 289 kts 72°
2026-05-03 21:47 50.21544 8.87449 6920 ft 280 kts 73°
2026-05-03 21:47 50.21841 8.90393 6505 ft 272 kts 104°
2026-05-03 21:48 50.21095 8.92949 6134 ft 253 kts 137°
2026-05-03 21:48 50.19762 8.94676 5720 ft 248 kts 154°
2026-05-03 21:48 50.18195 8.95685 5409 ft 242 kts 172°
2026-05-03 21:48 50.16547 8.96180 5116 ft 241 kts 175°
2026-05-03 21:49 50.14893 8.96609 4814 ft 242 kts 175°
2026-05-03 21:49 50.13237 8.97047 4541 ft 241 kts 175°
2026-05-03 21:49 50.11591 8.97493 4371 ft 237 kts 175°
2026-05-03 21:49 50.09973 8.97611 4262 ft 231 kts 197°
2026-05-03 21:50 50.08595 8.96491 4177 ft 220 kts 225°
2026-05-03 21:50 50.07723 8.94678 4079 ft 206 kts 245°
2026-05-03 21:50 50.07258 8.92665 4009 ft 190 kts 251°
2026-05-03 21:50 50.06859 8.90784 3923 ft 178 kts 251°
2026-05-03 21:51 50.06465 8.88934 3850 ft 177 kts 251°
2026-05-03 21:51 50.06110 8.87143 3788 ft 172 kts 258°
2026-05-03 21:51 50.06123 8.85327 3635 ft 165 kts 273°
2026-05-03 21:51 50.06222 8.83570 3460 ft 161 kts 272°
2026-05-03 21:52 50.06314 8.81841 3276 ft 160 kts 272°
2026-05-03 21:52 50.06404 8.80111 3096 ft 161 kts 272°
2026-05-03 21:52 50.06495 8.78361 2908 ft 163 kts 272°
2026-05-03 21:52 50.06585 8.76603 2718 ft 163 kts 272°
2026-05-03 21:53 50.06675 8.74849 2497 ft 162 kts 272°
2026-05-03 21:53 50.06762 8.73147 2284 ft 152 kts 272°
2026-05-03 21:53 50.06844 8.71569 2134 ft 144 kts 272°
2026-05-03 21:53 50.06731 8.70037 1905 ft 142 kts 247°
2026-05-03 21:54 50.06362 8.68642 1779 ft 140 kts 246°
2026-05-03 21:54 50.06007 8.67216 1617 ft 142 kts 250°
2026-05-03 21:54 50.05686 8.65765 1452 ft 140 kts 251°
2026-05-03 21:54 50.05357 8.64337 1233 ft 141 kts 248°
2026-05-03 21:55 50.05016 8.62896 1049 ft 143 kts 249°
2026-05-03 21:55 50.04667 8.61431 816 ft 148 kts 249°
2026-05-03 21:55 50.04311 8.59930 625 ft 146 kts 248°
2026-05-03 21:55 50.03965 8.58474 400 ft 140 kts 248°
2026-05-03 21:56 50.03660 8.57207 354 ft 102 kts 249°
2026-05-03 21:56 50.03486 8.56483 353 ft 41 kts 249°
2026-05-03 21:56 50.03440 8.56219 350 ft 24 kts 263°
2026-05-03 21:56 50.03447 8.55966 349 ft 16 kts 279°
2026-05-03 21:57 50.03461 8.55839 347 ft 12 kts 280°
2026-05-03 21:57 50.03484 8.55722 345 ft 11 kts 311°
2026-05-03 21:57 50.03550 8.55731 346 ft 11 kts 55°
2026-05-03 21:57 50.03580 8.55840 355 ft 11 kts 68°
2026-05-03 21:58 50.03613 8.55976 355 ft 16 kts 70°
2026-05-03 21:58 50.03655 8.56157 355 ft 21 kts 68°
2026-05-03 21:58 50.03714 8.56398 357 ft 26 kts 70°
2026-05-03 21:58 50.03782 8.56685 359 ft 31 kts 69°
2026-05-03 21:59 50.03849 8.56969 353 ft 27 kts 70°
2026-05-03 21:59 50.03912 8.57231 363 ft 25 kts 70°
2026-05-03 21:59 50.03971 8.57475 366 ft 23 kts 70°
2026-05-03 21:59 50.04026 8.57706 368 ft 22 kts 70°
2026-05-03 22:00 50.04080 8.57931 367 ft 22 kts 69°
2026-05-03 22:00 50.04136 8.58166 367 ft 25 kts 69°
2026-05-03 22:00 50.04199 8.58426 371 ft 25 kts 69°
2026-05-03 22:00 50.04258 8.58672 369 ft 23 kts 70°
2026-05-03 22:01 50.04313 8.58905 374 ft 23 kts 70°
2026-05-03 22:01 50.04368 8.59129 376 ft 22 kts 70°
2026-05-03 22:01 50.04418 8.59336 375 ft 16 kts 68°
2026-05-03 22:01 50.04457 8.59459 374 ft 9 kts 36°
2026-05-03 22:02 50.04525 8.59469 373 ft 11 kts 355°
2026-05-03 22:02 50.04616 8.59465 372 ft 15 kts 358°
2026-05-03 22:02 50.04726 8.59428 371 ft 17 kts 341°
2026-05-03 22:02 50.04824 8.59372 369 ft 14 kts 339°
2026-05-03 22:03 50.04930 8.59370 367 ft 16 kts 351°
2026-05-03 22:03 50.05040 8.59311 366 ft 10 kts 338°
2026-05-03 22:03 50.05078 8.59222 359 ft 12 kts 264°
2026-05-03 22:03 50.05053 8.59099 361 ft 12 kts 249°
2026-05-03 22:04 50.05023 8.58975 360 ft 13 kts 249°
2026-05-03 22:04 50.04991 8.58849 359 ft 6 kts 246°
2026-05-03 22:04 50.04958 8.58838 359 ft 4 kts 164°
2026-05-03 22:04 50.04933 8.58853 362 ft 4 kts 159°
2026-05-03 22:05 50.04913 8.58864 365 ft 0 kts 158°